Back to catalog

STARLINK-2534

AliveCommunicationsVLEO
NORAD 48311·PAYLOAD·🇺🇸 United States

Launched Apr 29, 2021 from Cape Canaveral Space Force Station

Loading…

Next Passes (next 24 hours)

TLE

FreshSource: CelesTrak SupGP

Epoch: Sep 14, 2026, 12:55 UTC

1 48311C 21036AM  26257.53868056  .00051764  00000+0  16645-2 0  2575
2 48311  53.1568 289.8032 0001176  78.6348  13.4990 15.31676794    16

Track STARLINK-2534 in real time with AllMySat

Download on the App Store